GSAT-10

Last updated on Thu Nov 21 2024 00:02:42 GMT+0000 (Coordinated Universal Time)

1 38779U 12051B 24325.07688414 -.00000164 00000+0 00000+0 0 9997 2 38779 0.0410 268.1459 0002832 220.4812 41.6710 1.00272593 44354
UTC large
Height (km)
Speed (km/s)
/
Latitude / Longitude
Inclination (degrees)
Orbital Period (minutes)
Azimuth
Elevation
Range (km)
Doppler Factor

Next 0 passes for location: London (51.5072 / 0.1276)

Sorry there are no passes over London.